Location: Ariel
(45.9570°N, 122.5700°W)
Time: 22:25:32
(UTC-07:00)

Tiros 1 - Pass Details

Date: 20 July 2019
Orbit: 630 x 664 km, 48.4° (Epoch: 19 August)

Event Time Altitude Azimuth Distance (km) Brightness Sun altitude
Rises 20:05:38 0° 286° (WNW) 2,992 13.0 6.6°
Reaches altitude 10° 20:08:27 10° 271° (W) 2,072 11.3 6.1°
Maximum altitude 20:12:01 21° 222° (SW) 1,457 9.3 5.5°
Drops below altitude 10° 20:15:34 10° 173° (S) 2,050 9.4 5.0°
Sets 20:18:20 0° 158° (SSE) 2,950 10.1 4.5°
